Temp
-6 -6 -6 -6 -6 -6 -6 -6 -6 -6 -6 -6 -6 -6 -6 -6 -6 -6 -7 -7 -7 -7 -8 -8 -9 -8 -8 -8 -9 -9 -9 -9 -9 -8 -9 -9 -9 -9 -9 -9 -9 -9 -9 -8
-6 -6 -6 -6 -6 -6 -6 -6 -6 -6 -6 -6 -6 -7 -7 -7 -7 -6 -7 -7 -7 -7 -7 -8 -9 -8 -8 -9 -9 -9 -9 -9 -9 -8 -8 -9 -9 -9 -9 -9 -9 -9 -9 -9
-6 -6 -6 -6 -6 -6 -6 -6 -6 -7 -7 -7 -7 -7 -7 -7 -7 -7 -7 -7 -6 -7 -8 -8 -8 -9 -9 -9 -9 -9 -9 -9 -8 -8 -9 -8 -9 -9 -9 -9 -9 -9 -9 -9
-6 -6 -6 -6 -6 -6 -7 -6 -6 -7 -7 -9 -7 -8 -7 -7 -7 -7 -7 -7 -7 -7 -8 -8 -8 -9 -9 -9 -9 -9 -9 -9 -8 -8 -9 -8 -8 -8 -7 -8 -9 -9 -9 -9
-6 -6 -6 -6 -6 -6 -6 -7 -7 -7 -7 -7 -9 -7 -9 -8 -7 -7 -7 -7 -7 -8 -8 -9 -9 -10 -9 -9 -9 -10 -9 -9 -9 -9 -9 -9 -9 -8 -8 -8 -9 -9 -9 -9
-6 -7 -7 -6 -6 -7 -7 -7 -7 -7 -7 -8 -9 -7 -9 -9 -8 -7 -7 -8 -8 -8 -9 -9 -10 -10 -10 -10 -10 -10 -10 -10 -9 -9 -9 -9 -9 -9 -9 -8 -9 -9 -9 -9
-7 -7 -7 -7 -7 -7 -8 -8 -9 -9 -9 -9 -8 -8 -8 -8 -8 -8 -8 -8 -8 -8 -8 -8 -9 -9 -10 -10 -10 -10 -10 -10 -9 -9 -9 -9 -9 -9 -9 -9 -9 -9 -9 -9
-8 -7 -7 -7 -7 -7 -7 -8 -8 -8 -10 -10 -9 -7 -9 -8 -8 -8 -9 -9 -9 -9 -9 -9 -8 -9 -9 -10 -10 -10 -10 -10 -10 -10 -10 -9 -9 -9 -10 -10 -9 -9 -9 -9
-8 -8 -8 -8 -8 -8 -8 -8 -8 -8 -8 -7 -9 -9 -8 -8 -8 -9 -9 -9 -10 -10 -10 -10 -9 -9 -9 -10 -10 -10 -10 -10 -10 -10 -9 -10 -9 -9 -9 -9 -10 -9 -9 -9
-7 -8 -7 -7 -8 -8 -8 -8 -8 -9 -8 -9 -10 -9 -10 -8 -9 -9 -10 -10 -10 -10 -10 -10 -9 -9 -9 -10 -10 -10 -10 -10 -10 -10 -10 -10 -9 -10 -9 -9 -9 -9 -9 -9
-7 -7 -8 -7 -7 -7 -7 -7 -7 -8 -8 -8 -9 -11 -9 -9 -9 -10 -10 -10 -10 -10 -10 -10 -10 -9 -10 -10 -10 -10 -10 -10 -10 -11 -10 -9 -9 -9 -9 -9 -9 -9 -9 -9
-7 -7 -7 -8 -7 -7 -7 -8 -8 -8 -9 -8 -8 -7 -8 -9 -9 -9 -9 -9 -9 -9 -10 -10 -10 -10 -10 -10 -10 -10 -10 -10 -10 -10 -10 -10 -10 -9 -9 -9 -9 -9 -9 -9
-7 -7 -7 -8 -7 -6 -7 -7 -8 -8 -8 -8 -8 -8 -10 -9 -8 -8 -9 -9 -9 -10 -10 -10 -10 -10 -10 -10 -10 -10 -10 -10 -10 -10 -10 -10 -10 -10 -10 -10 -10 -9 -9 -9
-8 -8 -8 -8 -9 -8 -8 -8 -8 -8 -8 -8 -8 -8 -9 -9 -9 -9 -9 -9 -10 -10 -10 -11 -11 -11 -11 -11 -11 -10 -11 -10 -10 -10 -10 -10 -10 -10 -10 -10 -10 -10 -9 -9
-8 -8 -8 -8 -9 -8 -8 -8 -9 -9 -9 -9 -9 -9 -9 -9 -9 -10 -10 -10 -10 -11 -11 -11 -11 -11 -11 -11 -11 -11 -11 -11 -10 -10 -9 -9 -10 -10 -10 -10 -10 -10 -10 -10
-8 -9 -8 -8 -9 -9 -9 -9 -9 -9 -10 -9 -9 -10 -9 -10 -10 -10 -10 -10 -11 -11 -11 -11 -11 -11 -12 -11 -11 -11 -12 -11 -11 -11 -10 -9 -10 -10 -10 -11 -10 -10 -10 -9
-9 -9 -9 -9 -9 -9 -9 -9 -9 -10 -10 -10 -10 -11 -10 -10 -10 -11 -11 -11 -11 -12 -12 -12 -12 -12 -11 -11 -11 -11 -12 -12 -12 -12 -11 -10 -10 -10 -10 -10 -10 -10 -10 -10
-9 -9 -9 -9 -9 -9 -9 -9 -10 -10 -10 -11 -11 -11 -11 -11 -11 -12 -11 -11 -11 -12 -12 -12 -12 -12 -11 -11 -11 -12 -13 -12 -12 -12 -12 -11 -10 -10 -10 -10 -10 -9 -9 -10
-10 -10 -10 -10 -10 -10 -10 -10 -10 -10 -11 -11 -11 -12 -12 -12 -13 -13 -12 -12 -12 -12 -12 -12 -12 -12 -11 -12 -12 -12 -12 -12 -12 -12 -12 -11 -10 -10 -10 -10 -9 -9 -9 -9
-10 -10 -10 -11 -10 -10 -11 -10 -10 -11 -11 -11 -12 -12 -12 -13 -13 -13 -13 -13 -12 -13 -12 -12 -12 -12 -11 -12 -12 -12 -11 -12 -11 -12 -12 -11 -11 -10 -10 -10 -9 -9 -9 -9
-10 -11 -11 -11 -11 -11 -11 -11 -11 -12 -13 -12 -12 -13 -13 -13 -13 -13 -13 -13 -13 -13 -12 -12 -12 -12 -12 -12 -12 -12 -11 -11 -11 -11 -12 -12 -11 -11 -11 -10 -10 -9 -9 -9
-12 -12 -12 -12 -12 -12 -11 -12 -12 -12 -12 -13 -13 -13 -13 -14 -14 -13 -13 -13 -13 -12 -13 -13 -12 -12 -12 -12 -11 -11 -11 -11 -11 -12 -12 -12 -12 -12 -11 -11 -9 -9 -9 -9
-13 -13 -13 -13 -15 -13 -13 -13 -13 -13 -13 -14 -14 -14 -14 -14 -14 -14 -13 -13 -13 -13 -13 -13 -12 -12 -12 -12 -11 -11 -11 -12 -12 -12 -12 -12 -12 -12 -11 -10 -10 -11 -11 -10
-13 -14 -13 -14 -14 -14 -14 -14 -14 -14 -14 -15 -14 -15 -15 -14 -15 -14 -14 -13 -13 -13 -13 -13 -13 -12 -12 -12 -12 -11 -12 -12 -12 -11 -12 -12 -12 -12 -11 -10 -10 -10 -10 -10
-15 -14 -15 -14 -14 -14 -14 -15 -15 -15 -15 -15 -15 -14 -14 -14 -15 -14 -14 -14 -13 -13 -13 -13 -13 -13 -12 -12 -12 -11 -11 -11 -12 -11 -12 -12 -12 -12 -12 -11 -11 -11 -11 -10
-16 -16 -15 -15 -15 -15 -15 -16 -15 -15 -15 -15 -15 -15 -14 -15 -15 -15 -14 -14 -14 -14 -13 -14 -13 -13 -13 -12 -12 -12 -12 -12 -12 -12 -12 -12 -12 -12 -11 -11 -11 -11 -11 -11
Height
5907 5907 5907 5906 5906 5905 5904 5903 5902 5900 5899 5898 5898 5897 5897 5896 5896 5894 5894 5892 5892 5892 5894 5896 5897 5896 5896 5900 5898 5897 5898 5897 5897 5896 5897 5898 5899 5898 5897 5896 5895 5894 5893 5892
5904 5904 5903 5903 5902 5901 5900 5901 5900 5898 5897 5897 5896 5895 5894 5894 5894 5892 5891 5889 5888 5889 5889 5890 5891 5891 5894 5895 5896 5896 5895 5896 5895 5893 5891 5892 5894 5896 5897 5897 5894 5893 5893 5892
5900 5900 5899 5898 5898 5897 5897 5897 5896 5896 5895 5894 5894 5893 5892 5891 5889 5888 5885 5883 5884 5884 5885 5885 5886 5887 5888 5891 5892 5892 5891 5891 5892 5885 5880 5888 5890 5892 5893 5894 5894 5893 5893 5893
5896 5895 5894 5894 5894 5895 5894 5894 5893 5893 5893 5896 5892 5896 5888 5887 5886 5883 5882 5880 5880 5879 5878 5880 5881 5882 5882 5884 5885 5885 5886 5888 5888 5883 5883 5888 5889 5888 5882 5891 5892 5892 5892 5892
5893 5892 5891 5890 5890 5891 5890 5890 5890 5889 5889 5890 5888 5890 5889 5885 5883 5881 5878 5879 5877 5875 5874 5874 5874 5875 5876 5877 5878 5878 5879 5881 5882 5880 5881 5884 5884 5886 5881 5879 5890 5889 5890 5890
5890 5888 5888 5887 5887 5887 5887 5886 5885 5885 5886 5887 5885 5885 5887 5882 5878 5876 5875 5872 5871 5870 5869 5868 5867 5867 5867 5868 5869 5870 5871 5871 5873 5873 5873 5878 5881 5880 5880 5881 5884 5884 5885 5887
5886 5885 5885 5884 5883 5883 5882 5882 5885 5886 5886 5886 5877 5877 5878 5874 5872 5870 5869 5867 5866 5864 5862 5861 5860 5859 5858 5858 5858 5858 5861 5862 5863 5865 5867 5868 5871 5873 5875 5878 5877 5879 5881 5882
5882 5881 5881 5880 5879 5878 5878 5878 5878 5876 5877 5878 5869 5871 5869 5867 5865 5864 5863 5861 5859 5857 5856 5854 5852 5850 5849 5848 5847 5848 5849 5850 5852 5854 5856 5859 5862 5867 5868 5871 5872 5873 5876 5878
5878 5876 5875 5874 5873 5874 5870 5873 5872 5869 5867 5866 5866 5863 5861 5860 5858 5856 5854 5852 5850 5849 5847 5845 5844 5842 5839 5837 5835 5834 5836 5837 5837 5841 5844 5847 5851 5853 5859 5863 5865 5866 5868 5871
5873 5872 5870 5869 5869 5868 5866 5864 5865 5862 5862 5860 5861 5854 5854 5849 5848 5847 5845 5843 5841 5839 5837 5835 5834 5831 5828 5825 5824 5823 5823 5824 5824 5827 5831 5834 5836 5840 5847 5852 5857 5859 5860 5862
5865 5866 5862 5864 5862 5861 5859 5859 5860 5858 5856 5853 5852 5853 5843 5843 5839 5837 5836 5832 5830 5828 5826 5823 5821 5819 5817 5813 5810 5812 5811 5812 5812 5815 5819 5821 5821 5825 5834 5842 5846 5850 5852 5855
5857 5857 5857 5855 5853 5853 5853 5852 5851 5849 5848 5844 5841 5842 5838 5834 5831 5829 5829 5825 5823 5818 5815 5812 5810 5808 5807 5804 5800 5799 5800 5801 5802 5803 5806 5807 5806 5810 5819 5828 5834 5840 5843 5846
5847 5848 5849 5848 5846 5845 5845 5845 5844 5841 5838 5837 5835 5836 5827 5823 5818 5817 5816 5814 5812 5809 5805 5801 5798 5796 5794 5792 5790 5789 5789 5789 5791 5793 5793 5794 5794 5799 5805 5814 5822 5827 5833 5838
5840 5841 5841 5843 5840 5838 5836 5836 5835 5832 5830 5828 5825 5824 5820 5816 5811 5809 5806 5804 5801 5798 5793 5790 5788 5785 5783 5781 5779 5778 5776 5777 5778 5780 5782 5783 5784 5786 5791 5800 5808 5816 5822 5827
5834 5834 5833 5832 5830 5828 5828 5829 5826 5823 5820 5818 5817 5813 5811 5806 5802 5800 5796 5793 5790 5787 5784 5780 5776 5773 5772 5770 5769 5767 5765 5764 5765 5768 5769 5770 5773 5775 5781 5788 5797 5805 5811 5817
5826 5825 5824 5824 5820 5818 5818 5818 5816 5814 5811 5809 5806 5802 5797 5795 5792 5790 5786 5783 5780 5777 5774 5771 5767 5763 5761 5760 5759 5756 5754 5753 5754 5756 5757 5759 5762 5763 5768 5776 5784 5792 5798 5806
5817 5817 5815 5816 5812 5808 5809 5809 5806 5803 5801 5799 5796 5793 5788 5785 5781 5779 5776 5772 5769 5766 5763 5760 5757 5755 5752 5750 5747 5744 5745 5744 5745 5746 5747 5748 5752 5753 5755 5763 5771 5780 5786 5794
5808 5808 5807 5806 5803 5801 5798 5799 5797 5794 5792 5788 5785 5782 5778 5775 5772 5769 5765 5762 5760 5756 5753 5750 5748 5746 5743 5739 5737 5736 5735 5736 5737 5739 5740 5740 5741 5744 5747 5751 5758 5767 5774 5782
5796 5796 5795 5796 5795 5793 5792 5788 5788 5785 5782 5776 5773 5770 5767 5764 5762 5758 5754 5752 5749 5746 5743 5740 5739 5738 5735 5731 5729 5726 5726 5728 5729 5732 5734 5734 5736 5736 5738 5743 5750 5756 5763 5769
5786 5785 5786 5785 5785 5784 5779 5780 5777 5773 5771 5767 5765 5762 5758 5755 5752 5748 5746 5743 5740 5737 5734 5732 5731 5729 5727 5723 5721 5717 5716 5721 5723 5726 5728 5728 5730 5730 5733 5736 5741 5747 5752 5758
5776 5775 5774 5773 5772 5772 5769 5770 5767 5765 5763 5757 5754 5751 5747 5745 5742 5739 5737 5735 5733 5730 5726 5724 5723 5722 5719 5717 5717 5714 5713 5713 5715 5717 5719 5721 5724 5727 5728 5730 5733 5737 5743 5749
5766 5765 5763 5761 5762 5763 5759 5759 5759 5754 5752 5748 5744 5741 5738 5736 5733 5730 5728 5726 5724 5722 5718 5717 5717 5716 5713 5711 5709 5708 5709 5710 5711 5712 5714 5716 5719 5721 5722 5723 5726 5729 5733 5738
5756 5754 5754 5755 5753 5748 5748 5747 5746 5743 5741 5738 5735 5733 5729 5727 5724 5721 5719 5717 5715 5713 5711 5710 5710 5708 5707 5704 5702 5701 5702 5705 5707 5709 5711 5714 5715 5716 5718 5719 5723 5724 5725 5728
5741 5741 5742 5743 5742 5740 5738 5737 5735 5733 5731 5729 5727 5724 5720 5718 5716 5713 5710 5707 5706 5704 5704 5703 5703 5701 5699 5696 5695 5695 5697 5700 5702 5703 5707 5709 5710 5712 5713 5715 5716 5718 5721 5724
5729 5729 5732 5730 5729 5729 5728 5726 5724 5723 5721 5719 5716 5713 5712 5710 5708 5705 5703 5700 5698 5698 5698 5697 5696 5694 5691 5691 5691 5692 5693 5695 5697 5699 5702 5705 5706 5709 5711 5713 5715 5717 5718 5720
5717 5721 5718 5718 5718 5718 5718 5716 5714 5713 5711 5709 5706 5704 5702 5702 5699 5697 5695 5692 5691 5692 5691 5690 5690 5688 5687 5687 5685 5688 5690 5690 5691 5693 5696 5700 5703 5706 5708 5710 5712 5714 5714 5715
Wind_Speed
13 11 12 13 14 14 13 9 8 10 11 14 11 12 11 11 11 11 11 12 13 12 15 17 20 23 24 16 20 16 14 14 12 10 7 3 0 3 4 1 3 5 3 13
12 12 13 14 16 15 10 8 9 10 11 11 12 12 13 12 11 11 15 14 14 15 15 17 22 27 24 22 20 16 22 20 18 16 17 14 11 3 3 3 1 1 4 3
12 13 13 13 12 11 11 11 12 11 12 13 13 12 12 13 13 12 13 12 13 12 13 18 23 25 25 22 22 28 26 27 24 32 22 20 17 11 10 9 5 3 3 5
13 11 8 10 12 12 15 14 14 13 11 7 11 7 18 14 15 16 15 15 17 17 17 14 20 24 30 31 31 31 29 32 31 31 24 24 23 18 21 15 9 7 5 5
10 10 11 12 13 12 16 16 16 14 13 12 15 12 14 14 16 17 18 18 17 18 19 20 21 22 27 31 33 35 35 32 36 38 36 31 21 24 27 20 17 14 12 9
13 12 11 13 12 15 17 17 18 18 16 15 17 16 9 15 18 18 19 19 19 20 21 24 25 27 31 34 35 37 41 41 42 40 38 32 35 28 29 24 30 19 19 16
14 14 14 15 16 17 18 18 12 14 11 13 23 21 14 20 20 20 19 19 20 22 25 27 30 33 37 37 39 40 42 43 47 46 45 42 39 36 32 33 31 25 24 22
17 20 18 17 18 22 22 23 23 22 17 16 30 25 24 22 21 20 16 19 20 23 27 30 32 35 36 38 42 43 43 47 52 52 51 49 46 45 40 40 35 30 30 28
20 24 23 22 22 22 29 25 27 29 31 30 22 26 25 22 23 19 20 21 23 25 28 31 33 35 39 41 42 39 39 46 50 47 48 55 55 53 49 43 41 37 34 33
22 24 24 25 25 26 26 30 28 28 27 24 16 32 18 25 25 24 25 26 28 29 31 32 32 35 38 41 38 40 44 41 47 43 49 49 53 63 56 50 47 38 35 36
23 22 30 23 27 27 30 29 26 27 30 31 29 19 32 27 28 28 27 30 32 33 34 36 36 36 38 42 45 39 40 42 43 34 39 46 52 60 62 61 50 43 41 38
27 27 26 29 29 29 28 28 28 29 28 32 33 30 30 29 30 28 26 29 30 34 35 37 38 39 39 42 47 42 39 39 38 37 36 34 46 62 66 56 55 50 49 48
30 29 28 29 31 29 28 27 26 27 30 30 32 30 32 36 38 37 32 32 32 33 35 37 38 39 40 41 40 37 37 40 39 39 35 35 38 54 65 63 59 58 56 50
30 30 28 26 29 32 32 31 31 32 33 33 35 32 34 34 38 37 35 34 33 34 37 38 40 40 40 40 37 37 39 40 39 42 44 45 38 46 63 69 65 64 59 56
30 29 30 29 30 32 33 31 31 34 36 37 34 36 34 38 38 37 36 36 35 36 36 38 37 37 38 36 35 38 38 40 42 39 41 42 44 43 56 68 68 64 64 59
30 30 32 31 34 36 35 34 34 35 34 36 36 37 41 37 39 38 38 37 35 35 35 35 35 37 36 34 33 37 36 34 35 36 39 38 38 42 48 55 68 64 65 61
33 33 34 34 35 38 38 36 35 34 34 35 35 36 38 39 40 39 38 36 35 34 33 33 33 35 35 37 36 32 30 32 29 31 36 38 38 41 43 50 63 66 62 55
36 36 36 36 38 40 41 37 36 35 34 35 35 36 37 38 37 37 40 39 36 35 34 35 35 35 34 33 30 29 31 29 27 28 30 33 34 38 41 41 55 62 63 57
38 37 38 38 37 39 39 40 36 36 34 36 35 37 38 39 38 39 43 40 40 38 36 36 36 35 33 30 27 33 24 27 28 26 27 28 29 29 37 40 47 56 58 60
39 39 40 40 41 40 40 40 39 36 36 40 34 35 37 37 37 37 37 35 35 33 35 35 33 33 34 32 32 34 19 19 25 26 24 21 21 18 26 35 44 52 57 57
42 42 43 43 43 39 41 37 37 35 34 36 38 37 37 36 33 32 30 30 32 31 34 35 35 31 32 31 28 20 18 19 16 32 24 20 15 23 14 19 32 47 52 55
44 44 44 45 40 37 44 36 35 35 34 36 37 38 37 34 32 31 29 29 29 33 35 32 30 30 31 28 27 22 21 18 15 14 17 15 11 11 8 9 14 26 43 50
44 45 43 42 33 41 35 35 33 35 35 34 36 34 34 34 34 32 32 33 34 31 33 31 25 27 29 30 30 24 24 21 21 19 16 16 15 13 13 11 11 10 11 21
47 45 43 41 39 35 34 34 34 34 34 32 32 33 34 34 34 34 32 31 30 27 28 26 23 25 30 32 15 17 20 23 19 17 20 18 15 14 13 14 13 13 13 12
40 42 34 39 37 35 33 33 33 32 32 33 34 36 36 31 30 30 30 29 28 25 21 21 22 25 30 20 21 15 20 22 23 21 23 19 16 14 13 15 16 16 17 17
33 30 37 35 34 33 30 29 32 31 34 34 34 33 27 27 30 29 26 26 24 20 17 19 21 22 24 21 15 14 14 18 22 28 27 22 18 17 16 15 15 16 15 15
Wind_Direction
297 295 297 302 302 300 299 292 290 296 309 318 326 325 326 320 306 295 274 275 261 268 230 235 246 253 262 274 225 206 216 196 187 197 206 198 185 35 30 221 256 238 281 218
289 287 292 299 303 305 295 278 279 292 303 304 309 311 308 300 283 259 261 267 264 248 244 230 235 251 254 264 261 264 219 223 211 209 213 207 197 194 294 306 280 238 230 179
285 291 297 302 313 311 295 291 286 287 302 304 312 312 308 304 295 287 296 299 292 274 241 236 238 244 253 250 259 250 238 221 223 238 209 217 204 200 219 227 235 212 222 215
292 300 307 311 311 311 294 298 292 290 294 276 308 273 307 302 300 300 298 295 288 282 282 260 235 242 251 252 249 246 254 248 232 242 247 231 217 215 249 217 213 229 213 206
302 302 302 304 307 303 295 298 291 288 291 291 298 291 279 291 290 288 288 282 279 280 279 275 269 252 249 250 248 239 251 249 241 239 239 242 225 222 231 222 225 218 230 226
295 294 294 298 298 297 301 294 288 289 294 289 275 292 294 272 291 289 283 280 279 273 262 261 261 258 250 248 245 243 239 239 237 244 241 247 243 237 235 238 238 218 226 234
292 287 286 288 289 288 290 286 296 288 284 288 287 302 296 297 292 289 285 275 275 271 269 264 261 254 247 247 251 246 238 238 237 240 240 247 248 240 239 239 250 235 236 228
281 284 280 282 277 281 281 286 290 290 289 281 296 307 297 298 293 289 279 274 265 256 256 260 264 268 266 262 256 250 244 241 240 239 241 242 247 240 237 240 246 246 242 239
273 271 276 277 277 277 284 281 289 290 295 298 300 293 304 296 294 288 282 281 275 272 269 268 269 267 268 267 265 262 249 244 247 239 241 243 239 241 234 239 242 247 250 247
271 272 273 276 279 278 277 286 291 295 299 295 293 300 300 307 299 293 290 290 285 279 276 275 271 267 265 268 265 259 253 248 245 244 239 242 241 237 234 232 239 241 249 251
276 274 280 282 279 280 287 285 286 290 291 291 294 292 293 301 294 294 291 289 287 284 279 276 273 268 265 267 269 262 253 255 244 239 237 246 244 235 233 235 224 236 248 252
277 278 276 281 287 285 283 285 294 294 291 295 299 302 293 294 295 290 284 283 283 281 278 276 275 273 268 268 269 268 259 255 245 243 244 256 249 232 233 228 228 230 239 247
278 278 282 287 289 282 287 295 294 293 290 292 293 301 292 305 304 306 305 303 297 289 284 279 277 274 272 270 271 270 264 260 247 242 251 257 257 233 226 228 228 229 233 238
280 281 283 281 277 287 295 299 299 296 293 295 296 298 297 295 298 303 304 301 293 285 282 281 282 280 277 275 275 270 266 262 257 250 249 253 253 245 229 226 229 230 233 238
279 283 285 289 288 290 292 295 295 294 297 296 299 299 299 301 304 305 305 303 297 291 286 284 282 277 279 279 275 267 269 264 256 250 247 243 249 247 234 230 229 229 231 234
283 288 287 290 293 293 295 299 298 298 298 299 300 301 301 304 305 306 304 301 296 293 291 284 281 275 276 283 282 272 269 266 255 247 246 245 240 239 237 230 229 226 230 236
282 285 287 290 291 292 296 296 300 299 298 298 297 293 299 303 304 304 304 301 296 294 293 287 285 288 285 283 281 272 266 261 254 252 248 247 241 239 231 231 228 227 229 232
280 281 285 289 291 294 294 299 297 297 297 296 296 296 299 302 302 300 299 295 291 289 289 286 286 295 294 287 271 262 264 249 247 246 249 251 247 236 231 227 225 225 228 231
279 281 283 285 287 290 294 292 296 296 297 297 300 300 299 299 297 293 295 293 292 288 286 288 286 293 296 287 273 263 261 240 255 227 238 243 247 244 233 226 232 227 226 230
277 277 279 283 284 285 288 293 294 296 298 296 298 296 295 296 296 293 296 293 290 288 284 286 289 292 293 280 278 270 227 227 240 220 224 226 227 230 232 232 228 233 230 228
277 278 280 283 284 286 286 291 294 294 288 299 298 297 297 299 300 297 290 288 282 281 283 284 288 291 289 278 283 271 254 229 238 217 204 201 217 219 230 241 234 231 231 234
275 277 281 282 283 284 289 290 288 289 290 291 292 293 296 296 294 289 284 284 292 279 284 287 291 291 286 280 289 275 244 220 240 188 218 204 204 217 236 242 239 228 232 232
272 273 274 280 280 285 286 285 286 287 287 286 291 294 293 291 287 286 285 284 290 289 280 286 288 284 284 276 277 262 237 226 215 226 220 218 223 226 233 242 243 262 263 242
274 273 276 278 277 276 278 279 282 281 283 286 287 286 288 290 292 294 290 283 288 290 285 285 281 280 271 274 254 223 230 243 244 241 220 219 226 237 236 239 257 263 259 261
270 276 276 274 274 274 276 275 276 279 283 283 284 284 287 291 295 289 291 283 287 289 287 279 276 280 274 286 234 239 239 246 239 237 222 228 232 235 238 241 251 260 258 255
270 267 267 268 268 270 272 271 276 278 280 281 285 290 295 299 296 291 284 288 283 286 277 272 273 282 279 284 233 235 252 257 244 237 225 229 239 234 236 240 246 252 259 258